Weather History for Crossville, TN

Change the Weather History Date:

Friday, July 12, 2013

  Actual Average Record
Temperature  
Mean Temperature 71 °F 75 °F  
Max Temperature 79 °F 84 °F 97 °F (1980)
Min Temperature 62 °F 65 °F 51 °F (1975)
Degree Days  
Heating Degree Days 0    
Month to date heating degree days 0  
Since 1 June heating degree days 0  
Since 1 July heating degree days 0  
Cooling Degree Days 6    
Month to date cooling degree days 84  
Year to date cooling degree days 358  
Since 1 June cooling degree days 278  
Growing Degree Days 21 (Base 50)    
Moisture  
Dew Point 62 °F    
Average Humidity 71    
Maximum Humidity 93    
Minimum Humidity 48    
Precipitation  
Precipitation 0.00 in 0.17 in 2.45 in (2012)
Month to date precipitation 7.02 1.96  
Year to date precipitation 40.91 30.94  
Sea Level Pressure  
Sea Level Pressure 30.00 in    
Wind  
Wind Speed 7 mph (NNE)    
Max Wind Speed 17 mph    
Max Gust Speed 22 mph    
Visibility 8 miles    
Events      
T = Trace of Precipitation, MM = Missing Value Source: NWS Daily Summary

Daily Weather History Graph

Daily Weather History Graph

Search for Another Location

Airport:

Trip Planner

Search our weather history database for the weather conditions in past years. The results will help you decide how hot, cold, wet, or windy it might be!

Date:

Astronomy

Jul. 12, 2013 Rise Set
Actual Time 5:33 AM CDT 7:58 PM CDT
Civil Twilight 5:03 AM CDT 8:27 PM CDT
Nautical Twilight 4:27 AM CDT 9:04 PM CDT
Astronomical Twilight 3:47 AM CDT 9:44 PM CDT
Moon 9:40 AM CDT (7/12) 10:18 PM CDT (7/12)
Length of Visible Light 15h 23m
Length of Day
14h 24m
Waxing Crescent, 17% of the Moon is Illuminated
Jul 12
Waxing Crescent
Jul 15
First Quarter
Jul 22
Full
Jul 29
Last Quarter
Aug 6
New

Hourly Weather History & Observations

Time (CDT) Temp. Dew Point Humidity Pressure Visibility Wind Dir Wind Speed Gust Speed Precip Events Conditions
12:53 AM 69.1 °F 66.0 °F 90% 29.94 in 7.0 mi NE 4.6 mph - N/A   Clear
1:53 AM 68.0 °F 64.9 °F 90% 29.93 in 6.0 mi NE 3.5 mph - N/A   Clear
2:53 AM 66.9 °F 64.9 °F 93% 29.93 in 5.0 mi NE 4.6 mph - N/A   Clear
3:03 AM 66.2 °F 64.4 °F 94% 29.99 in 4.0 mi NE 4.6 mph - N/A   Scattered Clouds
3:12 AM 66.2 °F 64.4 °F 94% 29.99 in 4.0 mi NE 4.6 mph - N/A   Mostly Cloudy
3:23 AM 66.2 °F 64.4 °F 94% 29.99 in 4.0 mi NNE 4.6 mph - N/A   Overcast
3:53 AM 66.9 °F 64.9 °F 93% 29.94 in 4.0 mi NE 5.8 mph - N/A   Overcast
4:53 AM 66.9 °F 64.0 °F 90% 29.95 in 5.0 mi NNE 10.4 mph 16.1 mph N/A   Overcast
5:04 AM 66.2 °F 64.4 °F 94% 30.02 in 6.0 mi NE 5.8 mph - N/A   Overcast
5:53 AM 66.9 °F 64.0 °F 90% 29.96 in 5.0 mi NNE 6.9 mph - N/A   Overcast
6:53 AM 66.9 °F 64.0 °F 90% 29.97 in 5.0 mi NNE 8.1 mph - N/A   Overcast
7:53 AM 66.9 °F 63.0 °F 87% 30.00 in 5.0 mi NNE 8.1 mph - N/A   Overcast
8:08 AM 68.0 °F 62.6 °F 83% 30.06 in 7.0 mi NNE 5.8 mph - N/A   Overcast
8:15 AM 68.0 °F 62.6 °F 83% 30.06 in 7.0 mi NNE 9.2 mph - N/A   Overcast
8:24 AM 68.0 °F 62.6 °F 83% 30.06 in 7.0 mi NE 9.2 mph - N/A   Overcast
8:53 AM 69.1 °F 62.1 °F 78% 30.01 in 8.0 mi ENE 10.4 mph - N/A   Overcast
9:24 AM 69.8 °F 60.8 °F 73% 30.08 in 8.0 mi NE 12.7 mph - N/A   Overcast
9:53 AM 70.0 °F 62.1 °F 76% 30.02 in 7.0 mi NNE 10.4 mph - N/A   Overcast
10:53 AM 72.0 °F 62.1 °F 71% 30.01 in 7.0 mi NE 11.5 mph 20.7 mph N/A   Mostly Cloudy
11:15 AM 73.4 °F 60.8 °F 65% 30.06 in 8.0 mi NE 11.5 mph 20.7 mph N/A   Partly Cloudy
11:53 AM 75.0 °F 60.1 °F 60% 30.00 in 10.0 mi North 9.2 mph 18.4 mph N/A   Partly Cloudy
12:53 PM 75.0 °F 60.1 °F 60% 30.00 in 10.0 mi NNE 9.2 mph - N/A   Scattered Clouds
1:53 PM 77.0 °F 59.0 °F 54% 29.99 in 10.0 mi NNE 9.2 mph 18.4 mph N/A   Scattered Clouds
2:53 PM 78.1 °F 59.0 °F 52% 29.98 in 10.0 mi NE 10.4 mph - N/A   Partly Cloudy
3:53 PM 78.1 °F 57.9 °F 50% 29.96 in 10.0 mi North 10.4 mph - N/A   Clear
4:53 PM 73.9 °F 59.0 °F 59% 29.97 in 10.0 mi North 6.9 mph - N/A   Partly Cloudy
5:53 PM 75.0 °F 59.0 °F 57% 29.97 in 10.0 mi NNE 6.9 mph - N/A   Scattered Clouds
6:53 PM 73.9 °F 59.0 °F 59% 29.99 in 10.0 mi North 5.8 mph - N/A   Scattered Clouds
7:53 PM 70.0 °F 59.0 °F 68% 30.00 in 10.0 mi North 5.8 mph - N/A   Partly Cloudy
8:53 PM 68.0 °F 59.0 °F 73% 30.01 in 10.0 mi North 4.6 mph - N/A   Clear
9:53 PM 66.0 °F 59.0 °F 78% 30.02 in 10.0 mi Calm Calm - N/A   Clear
10:53 PM 64.9 °F 57.9 °F 78% 30.00 in 10.0 mi North 3.5 mph - N/A   Clear
11:53 PM 64.9 °F 57.9 °F 78% 30.01 in 10.0 mi NNE 4.6 mph - N/A   Clear